Regional Weather Roundup
Issued by NWS Memphis, TN

Home | Current Version | Previous Version | Text Only | Print | Product List | Glossary On
Versions: 1 2 3 4 5 6 7 8 9 10 11 12 13 14 15 16 17 18 19 20 21 22 23 24 25 26 27 28 29 30 31 32 33 34 35 36 37 38 39 40 41 42 43 44 45 46 47 48 49 50
000
ASUS44 KMEG 041010
RWRMEG
MEMPHIS CWA HOURLY WEATHER ROUNDUP
NATIONAL WEATHER SERVICE MEMPHIS TN
500 AM CDT WED MAY 04 2016

...WEST TENNESSEE...

CITY           SKY/WX    TMP DP  RH WIND       PRES   REMARKS
MEMPHIS INTL   PTCLDY    52  48  86 SW5       29.91F
NWS MEMPHIS      N/A     49 N/A N/A MISG        N/A
JACKSON        CLEAR     50  47  89 SW6       29.89F
LEXINGTON      CLEAR     45  43  93 CALM      29.87F
DYERSBURG      PTCLDY    48  46  93 SW3       29.87F
UNION CITY     CLEAR     48  48 100 SW3       29.85F


...EASTERN ARKANSAS...

CITY           SKY/WX    TMP DP  RH WIND       PRES   REMARKS
JONESBORO      PTCLDY    51  45  79 W6        29.89F
WEST MEMPHIS   PTCLDY    52  49  89 CALM      29.91F
BATESVILLE     PTCLDY    46  43  87 CALM      29.92F
NEWPORT        PTCLDY    52  46  79 W7        29.92F
WALNUT RIDGE   PTCLDY    52  41  66 W8        29.89F
BLYTHEVILLE    PTCLDY    54  48  80 SW5       29.88F
SEARCY         PTCLDY    46  45  96 CALM      29.95F
STUTTGART      CLEAR     54  48  82 W8        29.95F
PINE BLUFF     CLEAR     52  48  86 W3        29.97F
MONTICELLO     MOCLDY    53  49  86 W5        29.97F


...NORTH MISSISSIPPI...

CITY           SKY/WX    TMP DP  RH WIND       PRES   REMARKS
TUPELO         CLEAR     50  46  86 CALM      29.92F
OXFORD         CLEAR     45  43  93 CALM      29.95S
BATESVILLE     FAIR      46  46  97 CALM      29.95S
OLIVE BRANCH   CLEAR     48  48 100 W6        29.92F
TUNICA         CLEAR     50  48  93 W5        29.94F
CORINTH        CLEAR     48  46  93 CALM      29.90F
GREENWOOD      CLEAR     49  47  93 CALM      29.95F
STARKVILLE     FAIR      45  45 100 CALM      29.93S
GOLDEN TRIANGL CLEAR     50  46  87 CALM      29.92F


...SOUTHEAST MISSOURI...

CITY           SKY/WX    TMP DP  RH WIND       PRES   REMARKS
KENNETT        FAIR      50  50 100 W7        29.87F
WEST PLAINS    CLEAR     45  39  79 SW5       29.89F
POPLAR BLUFF   CLEAR     50  46  86 SW6       29.86F
CAPE GIRARDEAU CLEAR     48  46  93 W6        29.84F


...NORTHWEST ALABAMA...

CITY           SKY/WX    TMP DP  RH WIND       PRES   REMARKS
MUSCLE SHOALS  CLEAR     50  47  89 CALM      29.91S


...MIDDLE TENNESSEE...

CITY           SKY/WX    TMP DP  RH WIND       PRES   REMARKS
NASHVILLE      PTCLDY    48  44  86 CALM      29.86F
CLARKSVILLE    PTCLDY    47  44  90 SW5       29.85F
COLUMBIA       CLEAR    N/A N/A N/A CALM      29.86F


...WESTERN KENTUCKY...

CITY           SKY/WX    TMP DP  RH WIND       PRES   REMARKS
PADUCAH        PTCLDY    50  46  86 SW7       29.83F
FORT CAMPBELL  CLEAR     47  45  95 SW7       29.84F


...CENTRAL ARKANSAS...

CITY           SKY/WX    TMP DP  RH WIND       PRES   REMARKS
LITTLE ROCK    CLEAR     51  47  86 W6        29.96F


SKY/WX REPORTED AS FAIR MEANS FEW OR NO CLOUDS BELOW
12 THOUSAND FEET.




USA.gov is the U.S. government's official web portal to all federal, state and local government web resources and services.